"Pseudo-MPEC" for ZTF05iT

Created 2019 Aug 19 1:07:07 UT using Find_Orb

Click here for an explanation of pseudo-MPECs

 
 Astrometry: 
     ZTF05iT  C2019 08 11.46389002 26 34.25 +03 56 53.8    ~8CLq 21.12gUNEOCPI41
     ZTF05iT  C2019 08 11.46479102 26 34.38 +03 56 53.2    ~8CLq 21.18gUNEOCPI41
     ZTF05iT  C2019 08 11.48223002 26 36.58 +03 56 54.4    ~8CLq 20.35rUNEOCPI41
     ZTF05iT  C2019 08 11.48314002 26 36.74 +03 56 54.9    ~8CLq 20.31rUNEOCPI41
     ZTF05iT  C2019 08 11.49753002 26 38.55 +03 56 56.0    ~8CLq 20.58rUNEOCPI41
     ZTF05iT  C2019 08 12.44192002 28 42.62 +03 57 59.1    ~8CLq 21.04gUNEOCPI41
     ZTF05iT  C2019 08 12.44281902 28 42.73 +03 57 59.1    ~8CLq 20.91gUNEOCPI41
     ZTF05iT  C2019 08 12.48206002 28 47.72 +03 58 01.6    ~8CLq 20.58rUNEOCPI41
     ZTF05iT  C2019 08 12.49950002 28 49.93 +03 58 02.1    ~8CLq 20.31rUNEOCPI41
     ZTF05iT KC2019 08 13PXlcZ?-V:?`E+7Z#S/oe%Astrometry.LPAgvNSw^)/+ljJTs`=$K88
     ZTF05iT KC2019 08 13xQ'+`Pq@_wpZF.qDlTSQ!w!UwtN^k,6C4A]dredacted;l##DN]bK88
     ZTF05iT KC2019 08 14tkZr84i5click#EDUsrmd%]am$E1K5o*LW%rkQ0ZWSo5R:j%f]jEH21
     ZTF05iT KC2019 08 14@Q8herexPJ#Sfor9r]e*]unGU%!explanation%:-s*39A#_;.QnH21
     ZTF05iT KC2019 08 14_!ql:D)NF=#ne3sfl4M?r`Xn=q/IW?JO1?M:yU:Xb'E\G7Ju0v[iH21

Station data:
(H21) Astronomical Research Observatory, Westfield  (N39.483057 W87.968270)
   US/Illinois. 0.76-m f/3.0 astrograph + CCD.
(I41) Palomar Mountain--ZTF  (N33.357340 W116.859780)  US/California. 1.2-m
   f/2.44 Oschin Schmidt + CCD.
(K88) GINOP-KHK, Piszkéstető  (N47.917622 E19.893600)  Hungary.  Observer K.
   Sárneczky. 0.60-m Schmidt + CCD.

Orbital elements:  ZTF05iT
   Perihelion 2019 Jul 19.725011 +/- 2.3 TT = 17:24:00 (JD 2458684.225011)
Epoch 2019 Aug 14.0 TT = JDT 2458709.5   Earth MOID: 0.4149   Ma: 0.0477
M   6.33038211 +/- 2.3              (J2000 ecliptic)          AutoNEOCP
n   0.25046032 +/- 0.0825           Peri.  212.91654 +/- 0.8
a   2.49254736 +/- 0.547            Node   123.31201 +/- 2.7
e   0.4312691 +/- 0.11              Incl.    7.58982 +/- 0.46
P   3.94                   H 18.5   G  0.15   U 11.1  
q 1.41758861 +/- 0.0485    Q 3.56750611 +/- 1.34
From 14 observations 2019 Aug. 11-14; mean residual 0".30
Residuals in arcseconds: 
190811 I41  .15+  .48+    190812 I41  .42-  .14+    190813 K88  .51+  .27-    
190811 I41  .36+  .19-    190812 I41  .48-  .08+    190814 H21  .02+  .39+    
190811 I41  .28-  .31-    190812 I41  .35-  .15+    190814 H21  .22+  .08+    
190811 I41  .36+  .13+    190812 I41  .32-  .41-    190814 H21  .39-  .29-    
190811 I41  .22-  .15+    190813 K88  .27+  .00     

Ephemerides (geocentric):
Date (UTC) HH   RA              Dec         delta   r     elong  mag " sig PA
---- -- -- --  -------------   -----------  ------ ------ -----  --- ---- ---
2019 08 19 01  02 42 20.814   +03 59 48.33  .79394 1.4462 105.8 20.5 5.69 143
2019 08 19 02  02 42 25.704   +03 59 47.12  .79381 1.4463 105.8 20.5 5.78 143
2019 08 19 03  02 42 30.590   +03 59 45.90  .79367 1.4464 105.8 20.5 5.87 143
2019 08 19 04  02 42 35.473   +03 59 44.65  .79354 1.4465 105.8 20.5 5.96 143
2019 08 19 05  02 42 40.352   +03 59 43.38  .79341 1.4466 105.8 20.5 6.05 143
2019 08 19 06  02 42 45.227   +03 59 42.08  .79327 1.4466 105.9 20.5 6.14 143
2019 08 19 07  02 42 50.099   +03 59 40.77  .79314 1.4467 105.9 20.5 6.24 144
2019 08 19 08  02 42 54.967   +03 59 39.42  .79300 1.4468 105.9 20.5 6.33 144
2019 08 19 09  02 42 59.831   +03 59 38.06  .79287 1.4469 105.9 20.5 6.42 144
2019 08 19 10  02 43 04.692   +03 59 36.67  .79273 1.4469 105.9 20.5 6.52 144
2019 08 19 11  02 43 09.549   +03 59 35.26  .79260 1.4470 106.0 20.5 6.62 144
2019 08 19 12  02 43 14.402   +03 59 33.83  .79247 1.4471 106.0 20.5 6.71 144
2019 08 19 13  02 43 19.252   +03 59 32.38  .79233 1.4472 106.0 20.5 6.81 144
2019 08 19 14  02 43 24.098   +03 59 30.90  .79220 1.4473 106.0 20.5 6.91 145
2019 08 19 15  02 43 28.940   +03 59 29.39  .79207 1.4473 106.0 20.5 7.01 145
2019 08 19 16  02 43 33.778   +03 59 27.87  .79193 1.4474 106.1 20.5 7.11 145
2019 08 19 17  02 43 38.613   +03 59 26.32  .79180 1.4475 106.1 20.5 7.21 145
2019 08 19 18  02 43 43.444   +03 59 24.75  .79166 1.4476 106.1 20.5 7.31 145
2019 08 19 19  02 43 48.272   +03 59 23.16  .79153 1.4477 106.1 20.5 7.41 145
2019 08 19 20  02 43 53.096   +03 59 21.54  .79140 1.4477 106.1 20.5 7.51 145
2019 08 19 21  02 43 57.916   +03 59 19.90  .79126 1.4478 106.2 20.5 7.61 145
2019 08 19 22  02 44 02.732   +03 59 18.24  .79113 1.4479 106.2 20.5 7.72 146
2019 08 19 23  02 44 07.545   +03 59 16.55  .79100 1.4480 106.2 20.5 7.82 146
2019 08 20 00  02 44 12.354   +03 59 14.84  .79086 1.4481 106.2 20.5 7.93 146
2019 08 20 01  02 44 17.159   +03 59 13.11  .79073 1.4481 106.2 20.5 8.03 146
2019 08 20 02  02 44 21.960   +03 59 11.36  .79060 1.4482 106.3 20.5 8.14 146
2019 08 20 03  02 44 26.758   +03 59 09.58  .79047 1.4483 106.3 20.5 8.25 146
2019 08 20 04  02 44 31.552   +03 59 07.78  .79033 1.4484 106.3 20.5 8.35 146
2019 08 20 05  02 44 36.342   +03 59 05.95  .79020 1.4485 106.3 20.5 8.46 146
2019 08 20 06  02 44 41.129   +03 59 04.11  .79007 1.4485 106.3 20.5 8.57 147
2019 08 20 07  02 44 45.911   +03 59 02.24  .78993 1.4486 106.4 20.5 8.68 147
2019 08 20 08  02 44 50.690   +03 59 00.34  .78980 1.4487 106.4 20.5 8.79 147
2019 08 20 09  02 44 55.466   +03 58 58.43  .78967 1.4488 106.4 20.5 8.90 147
2019 08 20 10  02 45 00.237   +03 58 56.49  .78954 1.4489 106.4 20.5 9.01 147
2019 08 20 11  02 45 05.005   +03 58 54.53  .78940 1.4489 106.4 20.5 9.13 147
2019 08 20 12  02 45 09.769   +03 58 52.54  .78927 1.4490 106.5 20.5 9.24 147
2019 08 20 13  02 45 14.529   +03 58 50.54  .78914 1.4491 106.5 20.5 9.35 147
2019 08 20 14  02 45 19.286   +03 58 48.51  .78900 1.4492 106.5 20.5 9.47 148
2019 08 20 15  02 45 24.039   +03 58 46.45  .78887 1.4493 106.5 20.5 9.58 148
2019 08 20 16  02 45 28.788   +03 58 44.38  .78874 1.4493 106.5 20.5 9.70 148
2019 08 20 17  02 45 33.533   +03 58 42.28  .78861 1.4494 106.6 20.5 9.82 148
2019 08 20 18  02 45 38.274   +03 58 40.16  .78848 1.4495 106.6 20.5 9.93 148
2019 08 20 19  02 45 43.012   +03 58 38.01  .78834 1.4496 106.6 20.5 10.1 148
2019 08 20 20  02 45 47.746   +03 58 35.85  .78821 1.4497 106.6 20.5 10.2 148
2019 08 20 21  02 45 52.476   +03 58 33.66  .78808 1.4497 106.6 20.5 10.3 148
2019 08 20 22  02 45 57.202   +03 58 31.44  .78795 1.4498 106.7 20.5 10.4 148
2019 08 20 23  02 46 01.924   +03 58 29.21  .78781 1.4499 106.7 20.5 10.5 149
2019 08 21 00  02 46 06.643   +03 58 26.95  .78768 1.4500 106.7 20.5 10.7 149